AAL1122 KDAY-KCMH

Flight info

Callsign AAL1122
Flight time 0h 22m
Altitude 13000
Route WIPOT FLYIR APE HAMON
Aircraft MD11/H-SDE1E2E3FGHIJ2J3J4J5M1RWXY/LB1D1

Departure

Time 2026-05-09 00:53
Airport James M. Cox Dayton International Airport (KDAY)

Arrival

Time 2026-05-09 01:16
Airport John Glenn Columbus International Airport (KCMH)
Time Latitude Longitude Altitude Speed Heading
2026-05-09 00:18 39.90017 -84.21872 1021 ft 0 kts 328°
2026-05-09 00:35 39.90019 -84.21873 1021 ft 0 kts 328°
2026-05-09 00:35 39.90021 -84.21875 1021 ft 0 kts 328°
2026-05-09 00:35 39.90020 -84.21875 1021 ft 0 kts 328°
2026-05-09 00:36 39.90022 -84.21875 1021 ft 0 kts 333°
2026-05-09 00:36 39.90026 -84.21874 1021 ft 1 kts 356°
2026-05-09 00:36 39.90032 -84.21858 1021 ft 3 kts 72°
2026-05-09 00:37 39.90032 -84.21816 1021 ft 0 kts 81°
2026-05-09 00:38 39.90035 -84.21782 1021 ft 9 kts 84°
2026-05-09 00:38 39.90036 -84.21762 1022 ft 10 kts 84°
2026-05-09 00:39 39.90039 -84.21732 1022 ft 15 kts 84°
2026-05-09 00:39 39.90050 -84.21597 1024 ft 5 kts 74°
2026-05-09 00:39 39.90050 -84.21596 1023 ft 0 kts 71°
2026-05-09 00:40 39.89989 -84.21778 1023 ft 388 kts 71°
2026-05-09 00:40 39.89997 -84.21857 1021 ft 0 kts 71°
2026-05-09 00:46 39.90028 -84.21779 1022 ft 22 kts 57°
2026-05-09 00:47 39.90120 -84.21633 1024 ft 20 kts 53°
2026-05-09 00:47 39.90196 -84.21502 1021 ft 17 kts 53°
2026-05-09 00:47 39.90262 -84.21378 1023 ft 15 kts 51°
2026-05-09 00:47 39.90338 -84.21312 1022 ft 11 kts 21°
2026-05-09 00:48 39.90383 -84.21306 1021 ft 4 kts 358°
2026-05-09 00:48 39.90443 -84.21310 1019 ft 13 kts 356°
2026-05-09 00:48 39.90558 -84.21312 1015 ft 20 kts 359°
2026-05-09 00:48 39.90692 -84.21315 1017 ft 18 kts 359°
2026-05-09 00:49 39.90821 -84.21319 1015 ft 20 kts 359°
2026-05-09 00:49 39.90964 -84.21326 1014 ft 21 kts 357°
2026-05-09 00:49 39.91074 -84.21333 1016 ft 10 kts 351°
2026-05-09 00:49 39.91084 -84.21336 1016 ft 0 kts 348°
2026-05-09 00:52 39.91088 -84.21337 1016 ft 3 kts 346°
2026-05-09 00:52 39.91136 -84.21364 1016 ft 12 kts 332°
2026-05-09 00:52 39.91176 -84.21415 1015 ft 6 kts 284°
2026-05-09 00:52 39.91154 -84.21515 1014 ft 26 kts 239°
2026-05-09 00:53 39.90846 -84.22098 1016 ft 129 kts 234°
2026-05-09 00:53 39.90199 -84.23312 1309 ft 183 kts 237°
2026-05-09 00:53 39.89449 -84.24638 2449 ft 181 kts 235°
2026-05-09 00:53 39.88774 -84.25840 3191 ft 157 kts 238°
2026-05-09 00:54 39.88194 -84.27077 2692 ft 161 kts 241°
2026-05-09 00:54 39.87636 -84.28273 2513 ft 152 kts 240°
2026-05-09 00:54 39.87134 -84.29487 2226 ft 151 kts 240°
2026-05-09 00:54 39.86572 -84.30579 2338 ft 147 kts 237°
2026-05-09 00:55 39.85944 -84.31780 2768 ft 182 kts 237°
2026-05-09 00:55 39.85239 -84.33185 3912 ft 191 kts 237°
2026-05-09 00:55 39.84523 -84.34637 5177 ft 192 kts 233°
2026-05-09 00:55 39.83485 -84.35688 6384 ft 195 kts 204°
2026-05-09 00:56 39.82056 -84.35831 7205 ft 224 kts 174°
2026-05-09 00:56 39.80606 -84.34865 8122 ft 250 kts 145°
2026-05-09 00:56 39.79572 -84.32945 8969 ft 273 kts 115°
2026-05-09 00:56 39.79270 -84.30413 9845 ft 286 kts 87°
2026-05-09 00:57 39.79421 -84.27853 10586 ft 293 kts 86°
2026-05-09 00:57 39.79558 -84.25194 11432 ft 297 kts 86°
2026-05-09 00:57 39.79690 -84.22467 11916 ft 302 kts 85°
2026-05-09 00:57 39.79820 -84.19728 12305 ft 304 kts 85°
2026-05-09 00:58 39.79951 -84.16973 12678 ft 306 kts 85°
2026-05-09 00:58 39.80083 -84.14201 12949 ft 309 kts 84°
2026-05-09 00:58 39.80216 -84.11408 12990 ft 310 kts 84°
2026-05-09 00:58 39.80360 -84.08450 13011 ft 346 kts 85°
2026-05-09 00:59 39.80520 -84.05175 13009 ft 374 kts 85°
2026-05-09 00:59 39.80686 -84.01691 13002 ft 402 kts 85°
2026-05-09 00:59 39.80863 -83.97944 12991 ft 423 kts 85°
2026-05-09 00:59 39.81040 -83.94127 12843 ft 422 kts 85°
2026-05-09 01:00 39.81213 -83.90319 12464 ft 425 kts 85°
2026-05-09 01:00 39.81386 -83.86494 12079 ft 423 kts 86°
2026-05-09 01:00 39.81558 -83.82691 11689 ft 421 kts 86°
2026-05-09 01:00 39.81729 -83.78900 11318 ft 419 kts 86°
2026-05-09 01:01 39.81898 -83.75132 11068 ft 416 kts 86°
2026-05-09 01:01 39.82065 -83.71381 11007 ft 415 kts 86°
2026-05-09 01:01 39.82230 -83.67631 11013 ft 415 kts 86°
2026-05-09 01:01 39.82395 -83.63886 11005 ft 415 kts 86°
2026-05-09 01:02 39.82558 -83.60139 11027 ft 415 kts 86°
2026-05-09 01:02 39.82721 -83.56388 11020 ft 415 kts 87°
2026-05-09 01:02 39.82930 -83.52649 11019 ft 416 kts 82°
2026-05-09 01:02 39.83488 -83.48971 11021 ft 414 kts 74°
2026-05-09 01:03 39.84276 -83.45369 11029 ft 413 kts 71°
2026-05-09 01:03 39.85116 -83.41943 11016 ft 379 kts 70°
2026-05-09 01:03 39.85901 -83.38826 10937 ft 347 kts 69°
2026-05-09 01:03 39.86750 -83.35976 10595 ft 335 kts 64°
2026-05-09 01:04 39.87722 -83.33252 10162 ft 329 kts 62°
2026-05-09 01:04 39.88724 -83.30582 9719 ft 328 kts 62°
2026-05-09 01:04 39.89729 -83.27925 9242 ft 325 kts 62°
2026-05-09 01:04 39.90648 -83.25253 8766 ft 323 kts 72°
2026-05-09 01:05 39.91137 -83.22417 8305 ft 319 kts 82°
2026-05-09 01:05 39.91481 -83.19580 7843 ft 315 kts 83°
2026-05-09 01:05 39.92155 -83.14049 7019 ft 297 kts 83°
2026-05-09 01:06 39.92498 -83.11407 6646 ft 294 kts 83°
2026-05-09 01:06 39.92844 -83.08794 6280 ft 292 kts 83°
2026-05-09 01:06 39.93189 -83.06216 6057 ft 283 kts 83°
2026-05-09 01:06 39.93523 -83.03729 6028 ft 277 kts 83°
2026-05-09 01:07 39.93856 -83.01258 6027 ft 276 kts 83°
2026-05-09 01:07 39.94189 -82.98791 6007 ft 277 kts 83°
2026-05-09 01:07 39.94411 -82.96312 5986 ft 274 kts 98°
2026-05-09 01:07 39.94047 -82.93923 6018 ft 268 kts 111°
2026-05-09 01:08 39.93507 -82.91608 6007 ft 267 kts 112°
2026-05-09 01:08 39.92954 -82.89300 6006 ft 267 kts 112°
2026-05-09 01:08 39.92397 -82.86991 6006 ft 267 kts 112°
2026-05-09 01:08 39.91884 -82.84737 5987 ft 254 kts 105°
2026-05-09 01:09 39.91760 -82.82465 5769 ft 252 kts 94°
2026-05-09 01:09 39.91789 -82.80205 5416 ft 249 kts 92°
2026-05-09 01:09 39.91821 -82.77980 5043 ft 248 kts 92°
2026-05-09 01:09 39.91850 -82.75739 4658 ft 246 kts 92°
2026-05-09 01:10 39.91872 -82.73523 4275 ft 244 kts 92°
2026-05-09 01:10 39.91886 -82.71328 4039 ft 241 kts 92°
2026-05-09 01:10 39.91900 -82.69142 4021 ft 241 kts 92°
2026-05-09 01:10 39.92236 -82.67029 3796 ft 238 kts 64°
2026-05-09 01:11 39.93306 -82.65421 3408 ft 238 kts 31°
2026-05-09 01:11 39.94828 -82.64772 3084 ft 228 kts 356°
2026-05-09 01:11 39.96306 -82.65289 3010 ft 218 kts 323°
2026-05-09 01:11 39.97319 -82.66600 3017 ft 189 kts 303°
2026-05-09 01:12 39.98091 -82.67891 2848 ft 174 kts 303°
2026-05-09 01:12 39.98576 -82.69242 2763 ft 164 kts 266°
2026-05-09 01:12 39.98515 -82.70688 2663 ft 166 kts 258°
2026-05-09 01:12 39.98313 -82.72133 2643 ft 165 kts 257°
2026-05-09 01:13 39.98354 -82.73620 2487 ft 169 kts 283°
2026-05-09 01:13 39.98645 -82.75063 2193 ft 159 kts 264°
2026-05-09 01:13 39.98644 -82.76026 2029 ft 160 kts 260°
2026-05-09 01:13 39.98573 -82.77497 1923 ft 161 kts 266°
2026-05-09 01:14 39.98637 -82.78824 1823 ft 136 kts 277°
2026-05-09 01:14 39.98766 -82.80162 1712 ft 176 kts 272°
2026-05-09 01:14 39.98837 -82.81645 1709 ft 151 kts 272°
2026-05-09 01:14 39.98911 -82.82979 1439 ft 150 kts 275°
2026-05-09 01:15 39.98995 -82.84370 1292 ft 155 kts 274°
2026-05-09 01:15 39.99067 -82.85739 1096 ft 147 kts 274°
2026-05-09 01:15 39.99151 -82.87093 903 ft 151 kts 274°
2026-05-09 01:15 39.99222 -82.88368 830 ft 124 kts 274°
2026-05-09 01:16 39.99273 -82.89265 829 ft 59 kts 276°
2026-05-09 01:16 39.99348 -82.89573 831 ft 30 kts 299°
2026-05-09 01:16 39.99409 -82.89701 831 ft 0 kts 303°
2026-05-09 01:19 39.99425 -82.89731 830 ft 13 kts 303°
2026-05-09 01:19 39.99460 -82.89808 832 ft 11 kts 300°
2026-05-09 01:19 39.99504 -82.89897 831 ft 13 kts 314°
2026-05-09 01:20 39.99545 -82.89921 829 ft 4 kts 351°
2026-05-09 01:20 39.99577 -82.89915 829 ft 3 kts 27°
2026-05-09 01:20 39.99603 -82.89858 829 ft 8 kts 73°
2026-05-09 01:20 39.99596 -82.89737 830 ft 14 kts 97°
2026-05-09 01:21 39.99586 -82.89639 829 ft 8 kts 97°
2026-05-09 01:21 39.99580 -82.89583 828 ft 5 kts 97°
2026-05-09 01:21 39.99576 -82.89531 828 ft 8 kts 95°
2026-05-09 01:21 39.99570 -82.89427 825 ft 15 kts 95°
2026-05-09 01:22 39.99560 -82.89253 827 ft 23 kts 93°
2026-05-09 01:22 39.99544 -82.89040 829 ft 25 kts 95°
2026-05-09 01:22 39.99541 -82.88947 829 ft 1 kts 92°
2026-05-09 01:22 39.99539 -82.88842 828 ft 21 kts 94°
2026-05-09 01:23 39.99528 -82.88618 826 ft 28 kts 95°
2026-05-09 01:23 39.99513 -82.88389 827 ft 18 kts 90°
2026-05-09 01:23 39.99538 -82.88320 825 ft 6 kts 37°
2026-05-09 01:23 39.99573 -82.88315 824 ft 4 kts
2026-05-09 01:24 39.99614 -82.88322 820 ft 4 kts 327°
2026-05-09 01:24 39.99638 -82.88361 825 ft 1 kts 317°
2026-05-09 01:24 39.99654 -82.88381 826 ft 0 kts 317°